Weather History for Billings, MT

Change the Weather History Date:

Wednesday, June 26, 2013

  Actual Average Record
Temperature  
Mean Temperature 74 °F 68 °F  
Max Temperature 85 °F 81 °F 102 °F (1988)
Min Temperature 63 °F 55 °F 41 °F (1989)
Degree Days  
Heating Degree Days 0 1  
Month to date heating degree days 73 90  
Since 1 June heating degree days 73 90  
Since 1 July heating degree days 6420 6776  
Cooling Degree Days 9 5  
Month to date cooling degree days 56 64  
Year to date cooling degree days 83 81  
Since 1 June cooling degree days 56 64  
Growing Degree Days 24 (Base 50)    
Moisture  
Dew Point 49 °F    
Average Humidity 52    
Maximum Humidity 78    
Minimum Humidity 25    
Precipitation  
Precipitation 0.06 in 0.06 in 0.90 in (1944)
Month to date precipitation 0.80 1.89  
Year to date precipitation 7.24 7.75  
Snow  
Snow 0.00 in 0.00 in T in (1949)
Month to date snowfall 0.0 0.0  
Since 1 June snowfall 0.0 0.0  
Since 1 July snowfall 40.4 55.0  
Snow Depth 0.00 in    
Sea Level Pressure  
Sea Level Pressure 29.89 in    
Wind  
Wind Speed 8 mph (NW)    
Max Wind Speed 29 mph    
Max Gust Speed 38 mph    
Visibility 10 miles    
Events Rain , Thunderstorm    
T = Trace of Precipitation, MM = Missing Value Source: NWS Daily Summary

Daily Weather History Graph

Daily Weather History Graph

Search for Another Location

Airport:

Trip Planner

Search our weather history database for the weather conditions in past years. The results will help you decide how hot, cold, wet, or windy it might be!

Date:

Astronomy

Jun. 26, 2013 Rise Set
Actual Time 5:25 AM MDT 9:08 PM MDT
Civil Twilight 4:47 AM MDT 9:46 PM MDT
Nautical Twilight 3:56 AM MDT 10:37 PM MDT
Astronomical Twilight 2:45 AM MDT 11:48 PM MDT
Moon 11:18 PM MDT (6/26) 9:34 AM MDT (6/26)
Length of Visible Light 16h 59m
Length of Day
15h 42m
Waning Gibbous, 85% of the Moon is Illuminated
Jun 26
Waning Gibbous
Jun 29
Last Quarter
Jul 8
New
Jul 15
First Quarter
Jul 22
Full

Hourly Weather History & Observations

Time (MDT) Temp. Dew Point Humidity Pressure Visibility Wind Dir Wind Speed Gust Speed Precip Events Conditions
12:53 AM 69.1 °F 45.0 °F 42% 29.78 in 10.0 mi SW 8.1 mph - N/A   Partly Cloudy
1:53 AM 68.0 °F 46.0 °F 45% 29.78 in 10.0 mi SSW 6.9 mph - N/A   Partly Cloudy
2:53 AM 68.0 °F 46.0 °F 45% 29.80 in 10.0 mi WSW 6.9 mph - N/A   Scattered Clouds
3:53 AM 66.9 °F 46.9 °F 49% 29.81 in 10.0 mi SW 8.1 mph - N/A   Mostly Cloudy
4:53 AM 66.0 °F 48.0 °F 52% 29.84 in 10.0 mi WSW 8.1 mph - 0.00 in Rain Light Rain
5:53 AM 64.9 °F 52.0 °F 63% 29.86 in 10.0 mi North 5.8 mph - 0.01 in   Mostly Cloudy
6:53 AM 64.9 °F 54.0 °F 68% 29.86 in 10.0 mi Calm Calm - 0.00 in   Mostly Cloudy
7:53 AM 68.0 °F 50.0 °F 52% 29.87 in 10.0 mi West 12.7 mph - N/A   Mostly Cloudy
8:53 AM 70.0 °F 50.0 °F 49% 29.89 in 10.0 mi Variable 3.5 mph - N/A   Scattered Clouds
9:53 AM 75.0 °F 46.9 °F 37% 29.89 in 10.0 mi WNW 13.8 mph 23.0 mph N/A   Partly Cloudy
10:53 AM 78.1 °F 46.0 °F 32% 29.89 in 10.0 mi West 13.8 mph 24.2 mph N/A   Partly Cloudy
11:53 AM 79.0 °F 46.9 °F 32% 29.89 in 10.0 mi West 9.2 mph - N/A   Scattered Clouds
12:53 PM 82.0 °F 45.0 °F 27% 29.88 in 10.0 mi Variable 6.9 mph 19.6 mph N/A   Scattered Clouds
1:53 PM 82.9 °F 46.0 °F 27% 29.87 in 10.0 mi WNW 13.8 mph 24.2 mph N/A   Scattered Clouds
2:53 PM 84.0 °F 45.0 °F 25% 29.87 in 10.0 mi NW 16.1 mph - N/A   Scattered Clouds
3:53 PM 84.0 °F 45.0 °F 25% 29.87 in 10.0 mi North 16.1 mph 23.0 mph N/A   Scattered Clouds
4:53 PM 82.9 °F 44.1 °F 25% 29.88 in 10.0 mi North 9.2 mph - N/A   Scattered Clouds
5:53 PM 82.0 °F 45.0 °F 27% 29.89 in 10.0 mi North 13.8 mph - N/A   Scattered Clouds
6:53 PM 79.0 °F 45.0 °F 30% 29.91 in 10.0 mi North 8.1 mph - N/A   Scattered Clouds
7:53 PM 78.1 °F 46.9 °F 33% 29.91 in 10.0 mi North 5.8 mph - N/A   Mostly Cloudy
8:53 PM 77.0 °F 48.0 °F 36% 29.93 in 10.0 mi NE 4.6 mph - N/A Thunderstorm Thunderstorm
9:36 PM 64.0 °F 57.0 °F 78% 30.09 in 10.0 mi North 8.1 mph - 0.05 in   Mostly Cloudy
9:53 PM 66.9 °F 55.9 °F 68% 30.01 in 10.0 mi NNW 8.1 mph - 0.05 in   Mostly Cloudy
10:53 PM 66.0 °F 57.9 °F 75% 30.02 in 10.0 mi NNW 8.1 mph - 0.00 in   Mostly Cloudy
11:53 PM 66.0 °F 59.0 °F 78% 30.02 in 10.0 mi Calm Calm - 0.00 in   Overcast